Location: Cedar Springs
(43.2230°N, 85.5510°W)
Time: 04:21:57
(UTC-04:00)

Cosmos 2278 Rocket - Visible Passes

Search period start: 26 May 2018 00:00
Search period end: 05 June 2018 00:00
Orbit: 839 x 847 km, 71.0° (Epoch: 25 May)

Date Brightness Start Highest point End Pass type
(mag) Time Alt. Az. Time Alt. Az. Time Alt. Az.
26 May 3.3 04:38:14 10° S 04:43:26 39° ESE 04:48:40 10° NE visible
27 May 3.4 04:23:45 10° S 04:28:54 38° ESE 04:34:05 10° NE visible
28 May 3.4 04:09:47 12° SSE 04:14:22 36° ESE 04:19:31 10° NE visible
29 May 3.4 03:55:49 15° SSE 03:59:50 34° ESE 04:04:55 10° NE visible
30 May 3.4 03:41:49 17° SSE 03:45:19 33° ESE 03:50:20 10° NE visible
30 May 3.0 05:24:02 10° SW 05:29:17 38° WNW 05:34:36 10° NNE visible
31 May 3.5 03:27:47 20° SSE 03:30:47 32° ESE 03:35:44 10° NE visible
31 May 3.0 05:09:38 11° SW 05:14:43 40° WNW 05:20:04 10° NNE visible
01 Jun 3.5 03:13:41 21° SE 03:16:15 30° ESE 03:21:09 10° NE visible
01 Jun 2.9 04:55:33 14° SW 05:00:09 42° WNW 05:05:32 10° NNE visible
02 Jun 3.5 02:59:34 23° SE 03:01:43 29° ESE 03:06:32 10° NE visible
02 Jun 2.9 04:41:25 16° SW 04:45:35 43° WNW 04:51:01 10° NNE visible
03 Jun 3.5 02:45:24 23° SE 02:47:12 28° ESE 02:51:56 10° NE visible
03 Jun 2.8 04:27:15 19° WSW 04:31:01 45° WNW 04:36:29 10° NNE visible
04 Jun 3.5 02:31:12 24° SE 02:32:41 27° ESE 02:37:20 10° NE visible
04 Jun 2.8 04:13:03 22° WSW 04:16:27 47° WNW 04:21:56 10° NNE visible
